Time,TemperatureF,DewpointF,PressureIn,WindDirection,WindDirectionDegrees,WindSpeedMPH,WindSpeedGustMPH,Humidity,HourlyPrecipIn,Conditions,Clouds,dailyrainin,SoftwareType,DateUTC
2013-06-15 00:14:00,53.5,51.0,30.12,SW,222,0.0,0.0,90,0.00,,,0.00,weatherlink.com 1.10,2013-06-15 04:14:00,
2013-06-15 00:29:00,53.0,51.0,30.12,SW,222,0.0,0.0,91,0.00,,,0.00,weatherlink.com 1.10,2013-06-15 04:29:00,
2013-06-15 00:44:00,52.8,50.0,30.12,SW,222,0.0,1.0,90,0.00,,,0.00,weatherlink.com 1.10,2013-06-15 04:44:00,
2013-06-15 00:59:00,52.6,50.0,30.12,SW,222,0.0,0.0,90,0.00,,,0.00,weatherlink.com 1.10,2013-06-15 04:59:00,
2013-06-15 01:14:00,52.2,49.0,30.13,SW,222,0.0,0.0,90,0.00,,,0.00,weatherlink.com 1.10,2013-06-15 05:14:00,
2013-06-15 01:30:00,51.8,49.0,30.13,SW,222,0.0,0.0,90,0.00,,,0.00,weatherlink.com 1.10,2013-06-15 05:30:00,
2013-06-15 01:45:00,51.4,48.0,30.13,SW,222,0.0,0.0,89,0.00,,,0.00,weatherlink.com 1.10,2013-06-15 05:45:00,
2013-06-15 02:00:00,51.1,48.0,30.14,SW,222,0.0,0.0,89,0.00,,,0.00,weatherlink.com 1.10,2013-06-15 06:00:00,
2013-06-15 02:15:00,50.6,48.0,30.14,SW,222,0.0,0.0,89,0.00,,,0.00,weatherlink.com 1.10,2013-06-15 06:15:00,
2013-06-15 02:30:00,50.1,47.0,30.15,SW,222,0.0,0.0,89,0.00,,,0.00,weatherlink.com 1.10,2013-06-15 06:30:00,
2013-06-15 02:45:00,50.0,47.0,30.14,SW,222,0.0,0.0,89,0.00,,,0.00,weatherlink.com 1.10,2013-06-15 06:45:00,
2013-06-15 03:00:00,49.5,46.0,30.14,SW,222,0.0,0.0,89,0.00,,,0.00,weatherlink.com 1.10,2013-06-15 07:00:00,
2013-06-15 03:15:00,49.2,46.0,30.14,SW,222,0.0,0.0,89,0.00,,,0.00,weatherlink.com 1.10,2013-06-15 07:15:00,
2013-06-15 03:30:00,49.1,46.0,30.13,SW,222,0.0,0.0,88,0.00,,,0.00,weatherlink.com 1.10,2013-06-15 07:30:00,
2013-06-15 03:45:00,48.7,46.0,30.13,SW,222,0.0,0.0,89,0.00,,,0.00,weatherlink.com 1.10,2013-06-15 07:45:00,
2013-06-15 04:00:00,48.5,45.0,30.13,SW,222,0.0,0.0,88,0.00,,,0.00,weatherlink.com 1.10,2013-06-15 08:00:00,
2013-06-15 04:15:00,48.1,45.0,30.14,SW,222,0.0,0.0,88,0.00,,,0.00,weatherlink.com 1.10,2013-06-15 08:15:00,
2013-06-15 04:30:00,48.1,45.0,30.14,SW,222,0.0,0.0,88,0.00,,,0.00,weatherlink.com 1.10,2013-06-15 08:30:00,
2013-06-15 04:45:00,47.8,45.0,30.14,SW,222,0.0,0.0,88,0.00,,,0.00,weatherlink.com 1.10,2013-06-15 08:45:00,
2013-06-15 05:00:00,47.6,44.0,30.15,SW,222,0.0,0.0,88,0.00,,,0.00,weatherlink.com 1.10,2013-06-15 09:00:00,
2013-06-15 05:15:00,47.4,44.0,30.15,SW,222,0.0,0.0,88,0.00,,,0.00,weatherlink.com 1.10,2013-06-15 09:15:00,
2013-06-15 05:30:00,47.2,44.0,30.16,SW,222,0.0,0.0,88,0.00,,,0.00,weatherlink.com 1.10,2013-06-15 09:30:00,
2013-06-15 05:45:00,46.8,44.0,30.18,SW,222,0.0,0.0,88,0.00,,,0.00,weatherlink.com 1.10,2013-06-15 09:45:00,
2013-06-15 06:00:00,46.8,44.0,30.18,SW,222,0.0,0.0,88,0.00,,,0.00,weatherlink.com 1.10,2013-06-15 10:00:00,
2013-06-15 06:15:00,46.7,43.0,30.18,SW,222,0.0,1.0,88,0.00,,,0.00,weatherlink.com 1.10,2013-06-15 10:15:00,
2013-06-15 06:30:00,46.8,44.0,30.19,SW,222,0.0,0.0,89,0.00,,,0.00,weatherlink.com 1.10,2013-06-15 10:30:00,
2013-06-15 06:45:00,46.8,44.0,30.19,SW,222,0.0,0.0,89,0.00,,,0.00,weatherlink.com 1.10,2013-06-15 10:45:00,
2013-06-15 07:00:00,47.1,44.0,30.20,SW,222,0.0,0.0,89,0.00,,,0.00,weatherlink.com 1.10,2013-06-15 11:00:00,
2013-06-15 07:15:00,48.0,45.0,30.20,SW,222,0.0,1.0,89,0.00,,,0.00,weatherlink.com 1.10,2013-06-15 11:15:00,
2013-06-15 07:30:00,48.7,46.0,30.20,SW,222,0.0,1.0,90,0.00,,,0.00,weatherlink.com 1.10,2013-06-15 11:30:00,
2013-06-15 07:45:00,49.1,46.0,30.21,SW,222,0.0,-999.0,89,-99.99,,,0.00,weatherlink.com 1.10,2013-06-15 11:45:00,
2013-06-15 08:00:00,49.9,47.0,30.21,SW,222,0.0,1.0,89,0.00,,,0.00,weatherlink.com 1.10,2013-06-15 12:00:00,
2013-06-15 08:15:00,51.6,49.0,30.21,SW,222,0.0,0.0,89,0.00,,,0.00,weatherlink.com 1.10,2013-06-15 12:15:00,
2013-06-15 08:30:00,53.1,50.0,30.21,SW,228,0.0,1.0,88,0.00,,,0.00,weatherlink.com 1.10,2013-06-15 12:30:00,
2013-06-15 08:45:00,55.5,53.0,30.22,SW,228,0.0,0.0,91,0.00,,,0.00,weatherlink.com 1.10,2013-06-15 12:45:00,
2013-06-15 09:00:00,59.9,56.0,30.22,SE,137,0.0,1.0,87,0.00,,,0.00,weatherlink.com 1.10,2013-06-15 13:00:00,
2013-06-15 09:16:00,62.6,57.0,30.22,SE,135,1.0,1.0,82,0.00,,,0.00,weatherlink.com 1.10,2013-06-15 13:16:00,
2013-06-15 09:31:00,64.2,58.0,30.22,ENE,69,1.0,1.0,81,0.00,,,0.00,weatherlink.com 1.10,2013-06-15 13:31:00,
2013-06-15 09:46:00,67.8,57.0,30.21,ENE,60,0.0,2.0,68,0.00,,,0.00,weatherlink.com 1.10,2013-06-15 13:46:00,
2013-06-15 10:01:00,68.6,57.0,30.20,ESE,109,2.0,5.0,66,0.00,,,0.00,weatherlink.com 1.10,2013-06-15 14:01:00,
2013-06-15 10:16:00,69.6,55.0,30.21,SSE,160,3.0,6.0,60,0.00,,,0.00,weatherlink.com 1.10,2013-06-15 14:16:00,
2013-06-15 10:31:00,69.7,55.0,30.20,SE,134,1.0,8.0,59,0.00,,,0.00,weatherlink.com 1.10,2013-06-15 14:31:00,
2013-06-15 10:46:00,69.9,55.0,30.20,ESE,120,2.0,7.0,60,0.00,,,0.00,weatherlink.com 1.10,2013-06-15 14:46:00,
2013-06-15 11:01:00,70.4,56.0,30.20,NE,52,2.0,6.0,61,0.00,,,0.00,weatherlink.com 1.10,2013-06-15 15:01:00,
2013-06-15 11:16:00,71.5,55.0,30.20,East,83,4.0,6.0,57,0.00,,,0.00,weatherlink.com 1.10,2013-06-15 15:16:00,
2013-06-15 11:31:00,70.4,56.0,30.20,East,82,3.0,6.0,61,0.00,,,0.00,weatherlink.com 1.10,2013-06-15 15:31:00,
2013-06-15 11:46:00,71.1,55.0,30.20,SSE,149,2.0,5.0,58,0.00,,,0.00,weatherlink.com 1.10,2013-06-15 15:46:00,
2013-06-15 12:01:00,71.5,56.0,30.20,SSW,193,2.0,3.0,58,0.00,,,0.00,weatherlink.com 1.10,2013-06-15 16:01:00,
2013-06-15 12:16:00,74.0,58.0,30.20,SE,137,2.0,6.0,58,0.00,,,0.00,weatherlink.com 1.10,2013-06-15 16:16:00,
2013-06-15 12:31:00,74.1,55.0,30.19,NE,41,2.0,4.0,51,0.00,,,0.00,weatherlink.com 1.10,2013-06-15 16:31:00,
2013-06-15 12:46:00,73.1,56.0,30.20,SSE,166,2.0,4.0,55,0.00,,,0.00,weatherlink.com 1.10,2013-06-15 16:46:00,
2013-06-15 13:01:00,74.2,56.0,30.20,East,91,4.0,5.0,54,0.00,,,0.00,weatherlink.com 1.10,2013-06-15 17:01:00,
2013-06-15 13:16:00,74.2,55.0,30.19,NW,319,2.0,2.0,52,0.00,,,0.00,weatherlink.com 1.10,2013-06-15 17:16:00,
2013-06-15 13:31:00,73.8,56.0,30.19,NE,37,6.0,6.0,54,0.00,,,0.00,weatherlink.com 1.10,2013-06-15 17:31:00,
2013-06-15 13:47:00,73.3,54.0,30.19,NE,51,5.0,6.0,52,0.00,,,0.00,weatherlink.com 1.10,2013-06-15 17:47:00,
2013-06-15 14:01:00,73.5,52.0,30.18,NW,307,2.0,6.0,47,0.00,,,0.00,weatherlink.com 1.10,2013-06-15 18:01:00,
2013-06-15 14:16:00,74.0,57.0,30.17,East,80,4.0,8.0,55,0.00,,,0.00,weatherlink.com 1.10,2013-06-15 18:16:00,
2013-06-15 14:31:00,73.0,59.0,30.17,SE,129,4.0,6.0,61,0.00,,,0.00,weatherlink.com 1.10,2013-06-15 18:31:00,
2013-06-15 14:46:00,72.7,60.0,30.17,ESE,107,2.0,5.0,65,0.00,,,0.00,weatherlink.com 1.10,2013-06-15 18:46:00,
2013-06-15 15:01:00,72.9,58.0,30.17,East,94,1.0,4.0,60,0.00,,,0.00,weatherlink.com 1.10,2013-06-15 19:01:00,
2013-06-15 15:16:00,72.9,59.0,30.17,SE,138,0.0,4.0,62,0.00,,,0.00,weatherlink.com 1.10,2013-06-15 19:16:00,
2013-06-15 15:31:00,73.0,60.0,30.17,East,92,1.0,5.0,64,0.00,,,0.00,weatherlink.com 1.10,2013-06-15 19:31:00,
2013-06-15 15:46:00,73.5,61.0,30.17,SSE,159,2.0,5.0,64,0.00,,,0.00,weatherlink.com 1.10,2013-06-15 19:46:00,
2013-06-15 16:01:00,73.5,61.0,30.16,SSW,198,1.0,5.0,65,0.00,,,0.00,weatherlink.com 1.10,2013-06-15 20:01:00,
2013-06-15 16:16:00,72.2,62.0,30.16,SE,134,3.0,5.0,70,0.00,,,0.00,weatherlink.com 1.10,2013-06-15 20:16:00,
2013-06-15 16:31:00,72.4,61.0,30.16,East,82,1.0,3.0,68,0.00,,,0.00,weatherlink.com 1.10,2013-06-15 20:31:00,
2013-06-15 16:46:00,73.7,62.0,30.16,SSE,163,3.0,4.0,66,0.00,,,0.00,weatherlink.com 1.10,2013-06-15 20:46:00,
2013-06-15 17:01:00,73.7,61.0,30.16,SE,135,2.0,6.0,65,0.00,,,0.00,weatherlink.com 1.10,2013-06-15 21:01:00,
2013-06-15 17:16:00,73.8,61.0,30.15,SE,139,5.0,7.0,65,0.00,,,0.00,weatherlink.com 1.10,2013-06-15 21:16:00,
2013-06-15 17:31:00,73.8,62.0,30.15,SE,127,1.0,6.0,66,0.00,,,0.00,weatherlink.com 1.10,2013-06-15 21:31:00,
2013-06-15 17:46:00,73.5,61.0,30.15,ESE,121,5.0,10.0,64,0.00,,,0.00,weatherlink.com 1.10,2013-06-15 21:46:00,
2013-06-15 18:01:00,73.1,61.0,30.14,South,170,5.0,5.0,67,0.00,,,0.00,weatherlink.com 1.10,2013-06-15 22:01:00,
2013-06-15 18:16:00,72.3,61.0,30.14,SSE,152,4.0,7.0,67,0.00,,,0.00,weatherlink.com 1.10,2013-06-15 22:16:00,
2013-06-15 18:31:00,71.8,61.0,30.14,SSE,166,2.0,5.0,68,0.00,,,0.00,weatherlink.com 1.10,2013-06-15 22:31:00,
2013-06-15 18:46:00,71.1,61.0,30.14,SW,226,3.0,7.0,70,0.00,,,0.00,weatherlink.com 1.10,2013-06-15 22:46:00,
2013-06-15 19:01:00,70.7,60.0,30.14,East,80,2.0,7.0,70,0.00,,,0.00,weatherlink.com 1.10,2013-06-15 23:01:00,
2013-06-15 19:16:00,70.1,60.0,30.15,SSE,148,0.0,5.0,71,0.00,,,0.00,weatherlink.com 1.10,2013-06-15 23:16:00,
2013-06-15 19:31:00,69.5,60.0,30.16,ENE,77,2.0,4.0,72,0.00,,,0.00,weatherlink.com 1.10,2013-06-15 23:31:00,
2013-06-15 19:46:00,69.2,61.0,30.16,East,98,3.0,3.0,74,0.00,,,0.00,weatherlink.com 1.10,2013-06-15 23:46:00,
2013-06-15 20:01:00,68.5,60.0,30.16,ESE,118,3.0,4.0,75,0.00,,,0.00,weatherlink.com 1.10,2013-06-16 00:01:00,
2013-06-15 20:16:00,67.5,60.0,30.16,SW,229,0.0,1.0,78,0.00,,,0.00,weatherlink.com 1.10,2013-06-16 00:16:00,
2013-06-15 20:31:00,66.0,60.0,30.16,SW,222,0.0,1.0,81,0.00,,,0.00,weatherlink.com 1.10,2013-06-16 00:31:00,
2013-06-15 20:46:00,64.6,60.0,30.15,NE,51,0.0,1.0,84,0.00,,,0.00,weatherlink.com 1.10,2013-06-16 00:46:00,
2013-06-15 21:01:00,63.6,59.0,30.15,NNE,13,1.0,1.0,86,0.00,,,0.00,weatherlink.com 1.10,2013-06-16 01:01:00,
2013-06-15 21:16:00,62.6,59.0,30.16,NNE,13,0.0,0.0,87,0.00,,,0.00,weatherlink.com 1.10,2013-06-16 01:16:00,
2013-06-15 21:31:00,61.6,58.0,30.16,North,5,0.0,1.0,89,0.00,,,0.00,weatherlink.com 1.10,2013-06-16 01:31:00,
2013-06-15 21:46:00,60.8,58.0,30.17,North,4,0.0,0.0,90,0.00,,,0.00,weatherlink.com 1.10,2013-06-16 01:46:00,
2013-06-15 22:02:00,60.3,57.0,30.18,North,4,0.0,1.0,90,0.00,,,0.00,weatherlink.com 1.10,2013-06-16 02:02:00,
2013-06-15 22:17:00,59.9,57.0,30.19,North,5,0.0,0.0,90,0.00,,,0.00,weatherlink.com 1.10,2013-06-16 02:17:00,
2013-06-15 22:32:00,59.5,57.0,30.20,North,5,0.0,0.0,90,0.00,,,0.00,weatherlink.com 1.10,2013-06-16 02:32:00,
2013-06-15 22:47:00,59.5,57.0,30.20,NW,321,0.0,2.0,90,0.00,,,0.00,weatherlink.com 1.10,2013-06-16 02:47:00,
2013-06-15 23:02:00,59.1,57.0,30.20,NW,321,0.0,0.0,91,0.00,,,0.00,weatherlink.com 1.10,2013-06-16 03:02:00,
2013-06-15 23:17:00,58.5,56.0,30.20,NW,321,0.0,0.0,90,0.00,,,0.00,weatherlink.com 1.10,2013-06-16 03:17:00,
2013-06-15 23:32:00,58.0,55.0,30.20,NW,321,0.0,0.0,90,0.00,,,0.00,weatherlink.com 1.10,2013-06-16 03:32:00,
2013-06-15 23:47:00,57.7,55.0,30.20,NW,322,0.0,1.0,89,0.00,,,0.00,weatherlink.com 1.10,2013-06-16 03:47:00,